Regional Weather Roundup
Issued by NWS

Home | Current Version | Previous Version | Graphics & Text | Print | Product List | Glossary On
Versions: 1 2 3 4 5 6 7 8 9 10 11 12 13 14 15 16 17 18 19 20 21 22 23 24 25 26 27 28 29 30 31 32 33 34 35 36 37 38 39 40 41 42 43 44 45 46 47 48 49 50
000
ASUS45 KCYS 021410
RWRWY

WYOMING REGIONAL WEATHER ROUNDUP
NATIONAL WEATHER SERVICE CHEYENNE WY
800 AM MDT TUE JUN 02 2015

NOTE:  "FAIR" INDICATES FEW OR NO CLOUDS BELOW 12,000 FEET
WITH NO SIGNIFICANT WEATHER AND/OR OBSTRUCTIONS TO VISIBILITY.

WYZ001-021500-
...YELLOWSTONE NATIONAL PARK...

CITY           SKY/WX    TMP DP  RH WIND       PRES   REMARKS
LK YELLOWSTONE   N/A     38  37  97 W3        30.15R
W YELLOWSTONE  NOT AVBL

$$
WYZ002>013-054>058-071-098>099-021500-
...NORTHERN WYOMING...

CITY           SKY/WX    TMP DP  RH WIND       PRES   REMARKS
JACKSON        MOSUNNY   43  41  93 CALM      30.10S
CODY           PTSUNNY   55  45  67 SE3       29.95S
GREYBULL       PTSUNNY   57  51  80 E3        29.93S
WORLAND        PTSUNNY   59  51  75 SE5       29.93S
SHERIDAN       SUNNY     59  51  75 CALM      29.91R
BUFFALO        MOSUNNY   60  50  69 CALM      29.94S
GILLETTE       SUNNY     62  53  72 W3        29.91S
HULETT         FAIR      63  54  72 S5        29.91F
NEWCASTLE      FAIR      64  48  55 N6        29.91S

$$
WYZ014>020-022>026-101>103-021500-
...CENTRAL WYOMING...

CITY           SKY/WX    TMP DP  RH WIND       PRES   REMARKS
BIG PINEY      PTSUNNY   48  38  68 NE5       30.11R
PINEDALE       PTSUNNY   45  41  87 W3        30.11S
DUBOIS         PTSUNNY   46  36  66 NW7       30.07S
LANDER         MOSUNNY   55  43  63 CALM      29.99R
RIVERTON       MOSUNNY   58  45  62 NE5       29.99S
CASPER         MOSUNNY   61  48  62 SW7       29.97S
DOUGLAS        SUNNY     61  50  67 W8        29.95R

$$
WYZ021-027>030-104>119-021500-
...SOUTHERN WYOMING...

CITY           SKY/WX    TMP DP  RH WIND       PRES   REMARKS
EVANSTON       MOSUNNY   51  39  63 E3        30.08R
KEMMERER       SUNNY     50  39  66 N7        30.09S
FORT BRIDGER   SUNNY     50  43  76 W5        30.11R
ROCK SPRINGS   MOSUNNY   54  42  64 CALM      30.06S
DIXON          FAIR      55  42  63 SE5       30.10S
RAWLINS        PTSUNNY   54  48  80 E3        30.07R
SARATOGA       FAIR      55  43  62 S14       30.09S
LARAMIE        MOSUNNY   51  45  79 S5        30.10S
CHEYENNE       MOSUNNY   56  49  77 CALM      30.02S
TORRINGTON     SUNNY     63  57  81 S10       29.93S
PINE BLUFFS    FAIR      59  55  88 SW5       29.99F

$$


USA.gov is the U.S. government's official web portal to all federal, state and local government web resources and services.